Temperature
16 16 17 17 15 12 14 15 15 16 18 19 20 20 19 18 19 20 20 20 20 19 17 17 17 17 17 17 17 17 17 17 17 17 16 16 16 16 15 15 15 16 16 16 16 16 15 15 15
16 16 17 17 13 13 14 15 16 17 19 19 19 19 18 18 19 19 19 19 19 18 17 17 17 17 17 17 17 17 17 17 17 17 16 16 16 16 16 15 16 16 16 16 16 16 15 15 15
15 16 16 13 12 13 15 16 16 17 19 19 19 19 18 18 18 19 19 19 19 18 17 17 17 17 17 17 17 17 17 17 17 17 17 16 16 16 16 16 16 16 16 16 16 16 16 15 15
15 15 15 12 13 14 15 16 16 17 19 19 19 18 18 18 18 19 19 19 18 18 17 17 16 17 17 17 17 17 17 17 17 17 17 17 16 16 16 16 16 16 16 16 16 16 15 15 15
14 15 12 12 13 14 14 16 17 16 17 18 18 17 18 18 18 19 19 19 18 18 17 16 16 16 17 17 17 17 17 17 17 17 17 17 16 16 16 16 16 16 16 16 16 16 15 15 15
14 12 11 12 13 14 15 16 17 17 17 18 18 17 17 18 18 18 18 18 18 18 17 16 16 16 16 17 17 17 17 17 17 17 17 17 17 17 17 16 16 16 16 16 16 16 15 15 15
12 11 11 12 13 14 16 17 17 17 17 18 18 16 17 17 18 18 18 17 17 17 17 16 16 16 16 16 17 17 17 17 17 17 17 17 17 17 17 17 17 16 16 16 16 16 15 15 15
12 11 11 12 13 15 16 17 18 17 17 18 18 17 16 17 17 17 17 17 16 16 16 16 16 16 16 16 16 17 17 17 17 17 17 17 17 17 17 17 17 16 16 16 16 15 15 15 15
12 10 11 12 13 15 16 17 17 17 17 17 17 18 18 17 17 17 16 16 16 15 15 16 15 16 16 16 16 16 17 17 17 17 17 17 17 17 17 17 17 17 16 16 16 15 15 15 15
11 10 11 13 14 14 16 16 16 17 16 16 17 18 18 17 17 16 16 16 16 15 15 15 15 15 15 16 16 16 16 17 17 17 17 17 17 17 17 17 17 17 16 16 16 16 15 15 15
10 10 12 13 14 15 15 15 16 16 15 16 16 17 17 17 17 16 16 16 16 16 16 15 15 15 15 16 16 16 16 16 17 17 17 17 17 17 17 17 17 17 16 16 16 16 15 15 15
10 11 12 13 14 14 14 15 15 16 16 17 17 17 17 17 17 17 17 17 16 16 16 16 15 15 15 15 16 16 16 16 16 16 16 17 17 17 17 17 16 16 16 16 16 15 15 15 15
10 11 13 13 14 14 14 14 15 15 16 17 17 17 17 17 17 17 17 17 16 16 16 16 16 15 15 15 15 15 16 16 16 16 16 16 16 16 16 16 16 16 16 15 15 15 15 15 14
10 11 12 13 13 14 13 14 14 15 16 17 17 17 17 17 17 17 17 16 16 16 16 16 15 15 15 15 15 15 15 15 15 15 15 15 15 15 15 15 15 15 15 15 15 14 14 14 14
11 11 11 12 12 13 14 13 13 15 16 16 16 17 17 17 17 17 17 17 17 17 16 16 16 15 15 15 15 15 15 15 15 15 15 15 15 15 15 15 15 15 14 14 14 14 14 14 13
10 10 10 11 12 12 13 12 13 15 15 16 16 16 17 17 17 17 17 17 16 16 16 16 15 15 15 15 15 15 15 14 14 14 14 14 14 14 14 14 14 14 14 13 13 13 13 13 13
9 8 9 10 11 12 12 12 13 15 15 15 15 16 16 17 17 17 17 17 17 16 16 16 16 15 15 15 15 15 14 14 14 14 14 14 14 14 14 14 14 13 13 13 13 13 13 13 12
8 8 8 9 11 11 11 11 12 14 14 14 15 15 16 16 17 17 17 17 17 16 16 16 16 15 15 15 15 15 14 14 14 14 14 14 14 14 14 14 14 13 13 13 13 13 12 12 12
8 8 9 9 11 11 11 11 12 13 13 14 14 15 16 16 16 17 17 17 17 16 16 16 16 16 15 15 15 15 15 14 14 14 14 14 14 14 14 14 14 13 13 13 13 13 12 12 12
8 8 9 10 10 11 10 11 11 12 12 14 14 15 15 16 16 16 16 16 16 16 16 16 16 16 15 15 15 15 15 14 14 14 14 14 14 14 14 14 13 13 13 13 13 12 12 12 12
8 8 8 9 10 10 11 10 10 11 12 13 14 15 15 15 16 16 16 16 16 16 16 16 16 16 15 15 15 15 14 14 14 14 14 14 14 14 13 13 13 13 13 13 13 12 12 12 12
8 8 9 9 9 8 10 8 9 9 10 10 12 14 14 15 15 15 15 15 15 15 15 15 15 15 15 15 15 14 14 14 14 14 14 14 13 13 13 13 13 13 13 12 12 12 12 11 11
8 8 9 9 8 8 8 8 8 9 9 10 10 13 14 14 14 14 14 15 15 15 15 15 14 14 14 14 14 14 14 14 13 13 13 13 13 13 13 12 12 12 12 12 12 12 11 11 11
8 8 7 7 7 8 7 7 7 7 9 10 10 12 13 13 13 13 13 13 13 14 13 13 13 13 13 13 13 13 13 13 13 13 12 12 12 12 12 12 12 12 11 11 11 11 11 11 10
8 7 7 7 7 7 7 7 8 8 8 9 10 11 12 12 12 12 12 12 13 13 13 12 12 12 12 12 12 12 12 12 12 11 11 11 11 11 11 11 11 11 11 10 10 10 10 10 10
7 7 7 7 7 6 6 6 8 8 8 9 10 10 11 11 11 12 12 12 12 12 11 11 11 11 11 11 11 11 11 11 11 10 10 10 10 10 10 10 10 10 10 10 10 9 9 9 9
7 7 7 6 6 6 6 6 6 8 7 8 8 8 9 10 10 11 11 11 11 11 11 10 10 10 10 10 10 10 10 10 10 9 9 9 9 9 9 9 9 9 9 9 9 9 9 8 8
7 7 6 6 6 7 7 6 7 8 8 7 6 7 8 9 9 10 10 10 10 10 10 10 9 9 9 9 9 9 9 9 9 8 8 8 8 8 8 8 8 8 8 8 8 8 8 8 8
7 6 6 6 6 6 6 7 8 8 8 6 6 7 8 8 9 10 10 10 10 9 9 9 9 8 8 8 8 8 8 8 8 7 7 7 7 7 7 7 7 7 7 7 7 7 7 7 7
7 7 6 6 6 5 5 7 8 7 6 6 7 7 8 9 9 10 10 9 9 9 9 8 8 8 7 7 7 7 7 7 7 6 6 6 6 6 6 6 6 6 6 6 6 6 6 6 6
Wind_Speed
7 6 3 4 5 5 2 5 3 5 3 2 1 3 6 5 5 3 2 8 10 11 16 19 19 18 17 17 16 15 14 13 12 12 13 13 13 14 14 14 14 14 14 14 14 15 15 15 15
3 3 4 5 5 2 5 5 4 4 4 3 1 2 3 2 1 5 5 7 12 13 16 17 19 18 18 17 16 15 14 13 12 12 12 13 13 13 13 13 13 13 13 13 14 14 14 14 13
2 3 4 5 5 7 5 4 4 5 5 2 1 2 2 2 3 6 6 10 11 11 15 17 19 19 18 17 16 14 13 12 11 12 12 12 13 13 13 12 13 13 13 13 13 13 12 12 11
3 4 4 4 6 7 5 2 2 6 5 2 2 2 2 3 2 5 10 13 12 9 14 18 19 19 18 17 16 14 13 12 11 12 12 12 12 13 13 12 12 12 11 11 11 11 10 10 9
3 3 4 3 6 5 4 3 2 4 4 3 2 1 3 7 3 9 13 14 13 9 13 18 19 19 18 17 15 14 13 12 11 11 11 12 13 13 12 12 11 10 10 10 10 9 9 8 8
3 3 5 7 6 4 3 2 1 2 3 2 2 2 2 3 6 10 12 12 10 9 12 17 19 19 18 16 15 14 13 12 11 11 11 12 12 12 11 11 10 9 8 8 8 8 7 7 7
4 5 6 7 5 4 3 2 2 1 2 2 2 3 1 2 6 9 10 10 8 9 10 13 16 17 17 16 15 14 13 11 10 11 10 11 12 11 10 10 9 8 7 6 6 5 5 5 5
4 5 6 6 7 6 3 2 2 1 2 1 2 5 4 4 8 10 10 9 8 6 7 9 13 14 15 15 15 14 13 11 10 11 11 11 11 10 10 9 8 7 6 5 4 3 3 3 4
4 4 8 9 8 5 2 1 3 1 2 2 2 1 2 10 11 11 9 8 8 8 6 7 9 11 13 13 13 13 12 11 11 11 11 10 9 8 8 8 7 6 5 4 3 2 1 2 3
4 7 9 6 6 4 2 1 2 4 4 3 3 2 5 11 13 13 13 12 11 10 8 7 8 9 11 10 11 11 10 10 10 10 10 9 7 7 6 6 6 5 5 4 4 3 1 0 1
5 7 5 3 3 2 0 1 1 2 3 2 3 3 8 11 13 13 13 12 12 10 9 8 7 9 9 8 9 8 8 9 9 10 10 8 7 5 5 4 4 4 4 4 4 3 2 2 1
4 3 4 3 2 3 1 1 1 2 6 4 4 5 8 12 14 13 14 12 10 10 9 8 8 8 9 9 8 8 8 8 8 10 10 9 6 5 5 5 6 6 5 5 5 4 5 4 4
3 3 3 2 3 3 2 2 3 6 6 2 1 4 8 10 10 8 8 9 9 10 10 9 8 8 8 7 7 8 8 9 10 10 11 11 8 6 6 6 7 7 7 7 6 6 6 6 6
4 3 3 2 2 3 4 3 3 7 3 2 1 4 6 7 8 7 8 9 9 10 10 9 9 8 9 6 6 7 9 10 10 11 12 13 12 9 7 6 7 9 10 10 9 8 6 6 6
4 4 2 0 3 3 5 4 8 8 2 3 3 4 4 5 5 7 8 8 9 9 8 8 9 8 8 7 8 8 10 10 9 11 13 14 13 12 10 6 6 10 12 11 9 8 6 5 5
5 5 4 4 4 4 7 10 10 6 4 5 5 4 4 4 4 4 4 5 6 6 7 7 7 8 9 7 8 7 9 10 10 11 11 13 15 14 11 7 7 11 11 9 5 5 4 5 5
4 6 7 4 5 5 7 8 7 5 6 7 6 5 4 4 3 2 2 3 4 5 6 6 5 6 7 7 6 7 7 8 9 9 10 11 13 14 12 8 9 11 8 7 6 6 5 6 6
7 6 6 6 4 6 7 6 3 4 7 8 7 5 5 5 4 2 0 1 2 3 4 4 4 3 4 4 3 3 3 4 6 7 8 9 10 11 11 8 9 9 5 6 6 7 6 6 6
6 7 5 5 2 5 7 6 5 4 6 8 8 6 6 5 1 1 2 2 3 3 3 3 3 2 3 2 2 2 3 2 3 4 6 7 7 8 9 6 6 6 6 8 8 6 6 6 3
4 5 5 1 1 4 4 6 6 6 7 8 9 9 8 6 3 1 2 3 3 3 4 3 3 2 2 2 2 2 2 2 2 1 2 3 4 5 6 5 4 4 5 6 6 6 4 4 4
1 6 6 4 2 3 1 5 7 7 5 6 8 8 7 9 8 5 4 4 4 4 3 4 4 3 2 1 2 2 2 1 1 0 0 1 2 2 3 4 4 3 5 5 6 6 7 6 4
2 3 5 5 5 1 2 5 8 7 7 9 10 9 9 8 8 6 6 5 4 4 4 5 5 5 4 3 2 3 2 2 1 0 1 2 2 2 2 2 3 2 3 4 5 5 5 6 5
2 2 4 4 4 1 1 3 8 4 9 12 11 10 9 9 9 8 7 6 5 4 5 5 6 6 5 5 3 3 2 1 0 1 2 2 3 4 4 3 2 2 2 3 4 4 4 5 5
3 5 6 4 3 4 6 5 8 6 10 8 8 9 9 9 9 8 7 6 5 5 5 5 6 6 6 6 5 4 3 2 2 2 2 2 2 3 6 5 4 3 2 2 3 3 3 3 4
3 4 2 1 3 6 4 6 10 9 9 8 9 8 8 9 10 10 9 8 6 6 5 5 6 6 5 6 6 5 4 3 2 1 2 2 2 3 5 5 4 3 3 3 2 1 1 1 1
5 5 5 5 5 3 3 8 9 7 6 7 8 6 7 9 9 10 9 8 7 7 6 6 6 5 5 5 5 5 5 4 3 3 3 3 2 2 3 4 4 5 5 4 3 3 3 2 2
6 4 3 4 2 2 6 7 10 5 6 5 5 6 9 10 10 9 8 8 7 7 6 6 6 6 5 5 5 5 5 5 4 4 4 3 3 3 4 5 5 5 5 5 4 4 4 4 4
3 5 4 4 5 4 5 6 6 7 7 5 5 7 8 8 8 8 7 7 6 6 5 5 6 6 4 4 4 4 5 5 5 5 5 5 5 4 5 5 5 6 6 5 5 5 5 6 6
5 4 4 3 3 5 4 7 6 7 7 8 8 7 9 9 9 8 7 6 6 6 6 6 6 5 5 5 5 5 5 5 5 5 5 5 5 5 5 5 6 6 7 6 6 7 7 7 7
4 6 7 5 4 4 4 8 5 5 8 7 7 6 7 8 7 7 7 7 6 6 6 6 5 5 5 5 5 5 5 5 6 5 5 5 6 5 6 6 6 7 7 7 8 8 8 8 8
Wind_Direction
338 354 37 50 58 60 225 245 245 288 276 282 285 151 149 153 168 185 115 143 138 146 156 155 154 150 146 139 134 129 126 123 121 119 120 118 117 112 108 104 99 95 93 94 96 96 98 98 98
349 15 47 62 103 147 252 244 246 255 280 325 18 85 89 73 62 116 136 155 144 148 152 154 153 150 146 141 137 134 131 128 125 125 126 125 123 117 112 108 103 99 97 97 98 99 100 99 97
13 43 85 89 139 180 218 221 232 291 293 258 16 35 89 86 146 162 163 150 140 143 148 153 151 149 145 142 140 137 134 132 129 129 131 131 129 123 116 110 107 103 102 103 103 103 102 99 95
73 59 65 112 191 208 210 210 283 332 353 26 93 44 41 6 217 164 143 145 139 137 147 153 151 147 144 143 142 140 138 135 131 130 134 135 133 127 119 116 114 111 109 109 109 107 103 98 93
65 106 118 172 217 232 233 245 294 348 334 359 82 89 357 350 69 127 140 147 145 141 147 153 150 147 146 146 145 143 141 139 136 135 136 136 133 128 123 122 120 118 117 115 114 111 105 97 91
87 105 150 197 218 248 247 213 359 349 332 344 105 99 350 11 113 133 142 144 143 141 146 152 150 147 147 148 148 147 146 145 144 143 141 140 136 133 132 132 130 128 126 122 120 115 107 97 90
144 144 177 185 199 240 236 177 139 2 331 296 151 122 23 93 128 130 131 132 131 136 140 147 149 149 150 151 151 150 150 150 149 147 145 142 141 142 142 143 143 142 139 133 128 120 111 97 86
158 139 165 181 186 220 220 155 120 116 287 320 129 157 192 173 138 125 125 128 129 130 135 142 147 149 150 153 155 153 154 155 151 149 146 143 145 149 150 150 154 157 154 148 143 133 114 89 74
126 147 194 192 186 201 191 125 14 36 58 30 18 237 212 139 136 133 136 141 148 152 148 147 146 148 151 155 158 157 157 157 151 149 149 147 149 153 156 161 166 167 167 169 178 181 142 88 66
143 191 208 195 182 172 159 120 23 31 7 4 6 26 115 141 151 154 160 165 169 172 168 159 154 153 154 156 155 155 156 157 155 155 155 156 157 160 163 174 182 184 187 197 215 230 228 145 47
166 194 189 191 180 146 123 350 61 65 309 290 276 205 155 160 166 170 171 174 177 176 175 170 164 161 158 153 155 157 158 161 166 169 169 166 164 167 171 182 199 205 210 220 240 259 261 270 282
156 198 160 164 137 119 170 305 321 217 244 277 253 194 178 174 180 182 179 179 177 178 184 177 171 168 168 163 165 166 167 174 181 185 182 175 174 183 191 199 210 215 220 225 236 246 255 263 268
152 155 153 136 128 149 166 227 258 260 275 312 150 170 188 187 188 189 185 180 177 185 189 184 176 175 174 170 174 178 184 190 195 194 196 193 190 196 204 213 218 223 225 225 231 240 249 259 267
169 127 115 117 137 161 172 234 226 255 282 345 169 199 205 196 188 183 183 185 187 191 193 187 185 183 179 178 182 188 194 198 200 203 207 206 205 205 207 215 221 227 228 227 228 233 240 251 259
133 121 69 148 165 183 154 225 225 240 257 261 235 225 220 212 194 198 195 192 194 195 193 190 190 185 184 187 192 195 198 198 203 212 214 213 214 214 213 215 222 230 231 229 231 237 239 247 250
115 135 184 222 182 184 165 223 231 221 202 243 243 234 231 235 222 217 204 196 191 187 186 190 192 186 191 192 195 197 200 201 210 215 216 217 219 219 215 217 227 232 227 222 221 225 232 241 242
144 175 191 212 195 173 182 225 232 201 191 228 239 227 229 244 263 258 219 195 182 178 176 180 180 177 189 193 195 198 199 203 211 214 218 221 221 220 216 221 229 227 219 218 224 222 217 236 242
174 163 172 197 204 176 198 226 239 204 194 219 234 224 220 226 245 280 299 147 149 148 157 167 165 169 175 174 171 183 196 204 209 214 221 223 223 220 217 223 227 219 215 222 221 228 222 230 240
142 142 162 200 214 176 209 230 242 230 215 225 232 226 222 225 245 22 61 89 101 93 113 132 137 139 142 140 159 177 201 204 207 217 224 225 225 222 217 225 223 215 221 227 224 224 230 237 224
147 154 163 179 193 170 209 244 252 240 224 220 223 221 215 208 200 159 99 88 96 100 98 99 103 100 127 156 156 161 161 175 193 200 214 226 230 229 225 227 227 220 227 233 228 218 224 229 191
186 177 167 160 91 56 108 279 253 254 239 235 228 221 212 203 197 186 152 121 106 97 96 100 91 82 71 97 118 98 90 72 70 23 292 320 276 254 243 241 236 229 224 234 234 224 226 238 222
189 188 162 144 136 227 169 251 267 246 253 243 234 224 214 202 188 180 167 143 124 108 94 88 82 72 56 61 103 145 167 193 207 315 332 356 9 355 327 295 266 250 240 245 248 236 231 233 240
163 114 124 136 134 116 182 219 276 255 248 247 236 225 214 196 184 177 169 148 123 107 94 85 78 64 53 58 81 108 124 164 42 36 28 20 20 19 8 359 347 308 273 266 263 255 240 234 240
122 81 68 64 97 228 209 199 269 234 225 242 239 223 206 186 174 161 146 132 117 101 92 87 81 63 51 58 62 83 99 91 76 39 20 12 12 12 12 10 7 351 327 301 286 273 259 253 249
112 112 106 126 205 241 189 208 249 244 232 232 244 235 203 178 166 159 155 149 139 122 107 96 92 75 59 63 60 62 73 79 80 53 36 24 16 10 5 12 10 3 355 351 347 341 330 307 269
168 157 168 186 205 254 211 232 253 256 265 258 254 229 187 176 170 166 163 155 147 136 124 114 104 91 74 70 63 56 59 65 60 51 54 47 34 15 6 17 21 19 18 20 28 42 37 41 42
146 182 153 130 133 232 251 276 298 264 273 268 245 198 185 179 173 166 160 155 150 142 136 129 118 103 86 80 78 63 58 64 64 55 51 46 31 32 30 31 31 30 31 35 43 56 51 57 53
152 142 124 150 174 232 268 263 254 278 271 267 235 209 190 173 168 165 162 159 153 144 132 122 118 113 99 85 81 81 65 65 65 63 54 47 38 37 37 39 40 39 38 40 53 59 56 65 57
153 161 165 170 185 184 251 267 231 245 268 259 242 214 189 179 176 173 167 159 148 139 134 128 123 116 104 93 86 81 71 67 67 64 55 49 45 42 47 49 52 51 46 45 58 62 61 68 62
186 189 170 183 218 195 209 268 273 261 270 250 230 203 189 184 178 172 164 157 155 152 146 141 136 127 120 111 100 90 81 75 71 66 57 56 57 52 53 56 60 59 55 54 62 66 64 68 66
Height
1518 1519 1520 1522 1526 1538 1538 1531 1527 1524 1521 1519 1518 1517 1518 1521 1524 1528 1523 1524 1528 1531 1535 1539 1543 1546 1548 1550 1552 1553 1554 1555 1555 1555 1556 1557 1557 1558 1559 1559 1560 1560 1560 1560 1560 1561 1561 1562 1563
1517 1519 1522 1522 1532 1543 1538 1528 1526 1523 1520 1519 1518 1518 1518 1519 1520 1521 1521 1525 1529 1533 1536 1540 1543 1547 1549 1551 1553 1554 1555 1555 1556 1557 1557 1558 1559 1560 1561 1561 1562 1562 1562 1562 1562 1563 1563 1564 1565
1516 1519 1522 1524 1533 1537 1531 1524 1522 1520 1519 1519 1518 1518 1519 1520 1520 1521 1523 1526 1530 1534 1537 1540 1544 1547 1549 1551 1553 1555 1556 1556 1557 1558 1559 1560 1561 1562 1563 1563 1563 1564 1564 1564 1565 1565 1566 1566 1567
1516 1519 1522 1528 1530 1527 1523 1520 1520 1519 1519 1519 1519 1520 1520 1521 1522 1523 1525 1527 1530 1534 1538 1541 1545 1548 1550 1552 1554 1555 1556 1557 1558 1559 1560 1561 1562 1563 1564 1565 1565 1566 1566 1566 1567 1567 1568 1569 1569
1515 1518 1523 1529 1526 1522 1519 1519 1519 1520 1519 1519 1520 1520 1520 1522 1522 1524 1526 1529 1531 1535 1539 1542 1545 1548 1551 1553 1554 1556 1557 1558 1560 1561 1562 1562 1563 1564 1565 1566 1567 1567 1568 1568 1568 1569 1570 1570 1571
1514 1516 1525 1528 1524 1519 1517 1518 1518 1519 1520 1519 1520 1521 1521 1522 1523 1526 1528 1530 1533 1536 1540 1543 1546 1549 1551 1553 1555 1557 1558 1559 1561 1562 1563 1564 1564 1565 1566 1567 1568 1569 1569 1570 1570 1571 1571 1572 1572
1512 1516 1521 1521 1521 1519 1516 1516 1518 1519 1520 1520 1520 1521 1522 1523 1525 1527 1529 1531 1534 1537 1540 1544 1547 1549 1552 1554 1556 1557 1559 1560 1561 1562 1563 1564 1565 1566 1567 1568 1569 1570 1570 1571 1571 1572 1572 1573 1573
1509 1514 1518 1520 1519 1517 1515 1516 1517 1518 1520 1520 1521 1521 1522 1523 1525 1528 1530 1532 1535 1538 1541 1544 1547 1549 1552 1554 1556 1558 1559 1560 1562 1563 1564 1565 1566 1567 1568 1568 1569 1570 1571 1572 1572 1573 1573 1573 1574
1508 1515 1516 1516 1515 1514 1513 1515 1517 1518 1519 1520 1520 1521 1521 1523 1525 1528 1530 1533 1536 1538 1541 1544 1547 1549 1552 1554 1556 1557 1559 1560 1562 1563 1564 1565 1566 1567 1568 1569 1569 1570 1571 1572 1572 1573 1573 1574 1574
1506 1512 1510 1509 1510 1511 1513 1515 1517 1518 1519 1520 1520 1520 1521 1523 1525 1527 1529 1532 1535 1538 1541 1543 1546 1549 1551 1553 1555 1557 1558 1560 1561 1562 1564 1565 1566 1567 1567 1568 1569 1570 1571 1571 1572 1573 1573 1573 1574
1504 1506 1506 1507 1509 1510 1512 1515 1516 1518 1520 1520 1521 1521 1521 1523 1525 1527 1529 1532 1534 1537 1540 1543 1545 1548 1550 1552 1554 1556 1558 1559 1561 1562 1563 1564 1565 1566 1567 1568 1568 1569 1570 1571 1571 1572 1572 1573 1573
1504 1504 1505 1507 1508 1510 1513 1514 1516 1517 1519 1520 1520 1521 1522 1523 1524 1526 1529 1532 1534 1537 1539 1542 1544 1547 1549 1552 1554 1555 1557 1559 1560 1561 1562 1563 1564 1565 1566 1567 1568 1568 1569 1570 1570 1571 1571 1571 1572
1502 1503 1505 1507 1508 1510 1513 1515 1516 1515 1517 1518 1519 1520 1521 1523 1525 1527 1529 1532 1534 1536 1538 1541 1543 1546 1548 1550 1552 1554 1556 1558 1559 1560 1561 1562 1563 1564 1565 1566 1566 1567 1567 1568 1568 1569 1569 1569 1570
1502 1503 1505 1507 1508 1510 1513 1514 1516 1514 1516 1517 1518 1519 1521 1523 1525 1526 1528 1530 1532 1535 1537 1540 1542 1544 1547 1549 1551 1553 1555 1556 1557 1558 1559 1560 1561 1562 1563 1564 1565 1565 1566 1566 1566 1567 1567 1567 1567
1502 1505 1507 1507 1508 1510 1513 1515 1513 1513 1515 1516 1517 1519 1520 1522 1523 1525 1527 1529 1531 1534 1536 1538 1541 1543 1545 1547 1549 1551 1553 1554 1556 1557 1558 1558 1559 1560 1561 1562 1562 1563 1564 1564 1564 1564 1564 1564 1564
1503 1507 1511 1508 1508 1509 1515 1516 1510 1511 1513 1514 1516 1518 1519 1521 1522 1524 1526 1528 1531 1533 1535 1537 1539 1541 1543 1545 1547 1549 1551 1552 1553 1555 1556 1556 1557 1558 1559 1559 1560 1561 1561 1561 1561 1561 1561 1561 1561
1505 1511 1512 1509 1507 1508 1511 1512 1508 1510 1512 1513 1514 1516 1517 1519 1521 1523 1525 1527 1529 1531 1533 1535 1537 1539 1541 1543 1545 1547 1548 1550 1551 1552 1553 1554 1555 1555 1556 1556 1557 1557 1557 1557 1558 1557 1557 1557 1557
1507 1510 1511 1511 1507 1508 1510 1510 1507 1508 1510 1511 1513 1514 1515 1517 1519 1521 1523 1525 1527 1529 1531 1533 1535 1537 1539 1541 1543 1544 1545 1546 1548 1549 1550 1551 1551 1552 1552 1553 1553 1554 1553 1553 1554 1554 1553 1553 1553
1504 1507 1509 1509 1506 1508 1509 1509 1508 1508 1509 1510 1510 1511 1513 1515 1517 1519 1520 1522 1524 1526 1528 1530 1532 1534 1536 1538 1539 1541 1542 1543 1544 1545 1546 1547 1548 1548 1548 1549 1549 1549 1549 1549 1550 1549 1549 1548 1549
1503 1507 1508 1508 1506 1508 1510 1510 1507 1506 1506 1506 1507 1508 1510 1512 1514 1516 1517 1519 1521 1523 1525 1527 1529 1531 1533 1534 1536 1537 1539 1540 1541 1541 1542 1543 1543 1544 1544 1544 1544 1544 1544 1544 1545 1544 1544 1543 1544
1506 1507 1508 1508 1508 1509 1510 1511 1507 1503 1502 1503 1503 1504 1506 1508 1510 1513 1514 1516 1518 1520 1522 1524 1526 1528 1529 1531 1532 1534 1535 1535 1536 1537 1538 1538 1539 1539 1539 1539 1539 1539 1539 1539 1539 1539 1538 1538 1538
1506 1505 1506 1507 1512 1517 1514 1520 1509 1503 1501 1498 1498 1499 1501 1504 1507 1509 1512 1514 1516 1518 1519 1521 1523 1524 1526 1527 1528 1529 1530 1531 1532 1533 1533 1533 1534 1534 1534 1534 1534 1533 1533 1533 1533 1533 1533 1532 1532
1505 1504 1506 1508 1513 1518 1517 1520 1510 1502 1500 1494 1492 1494 1496 1499 1503 1505 1508 1511 1513 1515 1516 1518 1519 1521 1522 1523 1524 1525 1526 1527 1527 1528 1528 1528 1529 1528 1528 1528 1528 1528 1527 1527 1527 1527 1527 1527 1526
1504 1507 1510 1513 1516 1520 1517 1520 1510 1502 1493 1489 1488 1488 1490 1494 1498 1502 1505 1507 1510 1511 1513 1515 1516 1517 1518 1519 1520 1521 1521 1522 1522 1523 1523 1523 1523 1523 1523 1523 1522 1522 1522 1522 1521 1521 1521 1521 1521
1506 1511 1516 1518 1519 1518 1515 1514 1502 1490 1486 1485 1484 1484 1486 1489 1493 1497 1500 1504 1506 1509 1510 1512 1513 1514 1515 1515 1516 1516 1517 1517 1518 1518 1518 1518 1518 1518 1518 1517 1517 1516 1516 1516 1516 1515 1515 1515 1515
1506 1509 1515 1517 1519 1520 1516 1511 1495 1485 1482 1481 1481 1481 1483 1486 1489 1493 1497 1501 1504 1506 1508 1509 1510 1511 1512 1512 1512 1513 1513 1513 1513 1514 1513 1513 1513 1513 1512 1512 1512 1511 1511 1510 1510 1510 1510 1509 1509
1505 1508 1509 1517 1519 1520 1515 1506 1494 1481 1480 1479 1478 1478 1479 1483 1487 1491 1495 1499 1502 1504 1506 1507 1508 1509 1509 1509 1509 1509 1509 1509 1509 1509 1509 1509 1508 1508 1508 1507 1507 1507 1506 1506 1505 1505 1505 1505 1504
1502 1504 1512 1516 1516 1514 1508 1504 1496 1482 1479 1478 1477 1477 1478 1482 1486 1490 1494 1497 1500 1502 1503 1505 1506 1506 1506 1506 1506 1506 1506 1506 1506 1506 1505 1505 1505 1504 1504 1503 1503 1502 1502 1501 1501 1501 1500 1500 1500
1503 1505 1507 1511 1512 1513 1510 1499 1484 1480 1478 1477 1476 1476 1478 1481 1485 1489 1492 1495 1498 1499 1501 1502 1503 1503 1503 1503 1503 1503 1503 1503 1502 1502 1502 1501 1501 1500 1500 1500 1499 1499 1498 1498 1497 1497 1497 1497 1497
1499 1500 1504 1508 1510 1513 1514 1498 1478 1478 1475 1474 1474 1476 1478 1481 1485 1488 1491 1493 1495 1497 1498 1500 1500 1501 1501 1500 1500 1500 1500 1499 1499 1499 1498 1498 1498 1497 1497 1496 1496 1496 1495 1495 1495 1494 1494 1494 1494